TimeEST,TemperatureF,Dew PointF,Humidity,Sea Level PressureIn,VisibilityMPH,Wind Direction,Wind SpeedMPH,Gust SpeedMPH,PrecipitationIn,Events,Conditions,WindDirDegrees,DateUTC
12:12 AM,55.4,51.8,88,29.74,10.0,SSE,8.1,-,0.01,,Overcast,160,2012-12-10 05:12:00
12:53 AM,55.9,52.0,87,29.73,10.0,South,8.1,-,0.02,Rain,Light Rain,170,2012-12-10 05:53:00
1:27 AM,55.4,51.8,88,29.71,10.0,South,9.2,-,0.00,Rain,Light Rain,170,2012-12-10 06:27:00
1:53 AM,55.9,53.1,90,29.71,9.0,South,11.5,-,0.01,Rain,Light Rain,170,2012-12-10 06:53:00
2:53 AM,57.0,53.1,87,29.68,10.0,South,9.2,-,0.00,,Overcast,170,2012-12-10 07:53:00
3:53 AM,57.0,53.1,87,29.68,6.0,SSW,9.2,-,0.01,Rain,Light Rain,200,2012-12-10 08:53:00
4:07 AM,57.2,53.6,88,29.68,4.0,WSW,19.6,27.6,0.03,Rain,Light Rain,240,2012-12-10 09:07:00
4:21 AM,55.4,51.8,88,29.67,6.0,SW,11.5,-,0.05,Rain,Rain,220,2012-12-10 09:21:00
4:53 AM,55.9,52.0,87,29.68,10.0,SSW,9.2,-,0.06,Rain,Light Rain,200,2012-12-10 09:53:00
5:53 AM,55.0,50.0,83,29.68,10.0,SW,9.2,-,0.01,,Overcast,220,2012-12-10 10:53:00
6:53 AM,54.0,50.0,86,29.68,10.0,South,6.9,-,0.00,,Overcast,180,2012-12-10 11:53:00
7:32 AM,53.6,51.8,94,29.66,10.0,SSW,6.9,-,0.00,Rain,Light Rain,200,2012-12-10 12:32:00
7:53 AM,54.0,51.1,90,29.68,6.0,South,9.2,-,0.02,Rain,Light Rain,190,2012-12-10 12:53:00
8:06 AM,53.6,51.8,94,29.64,4.0,SSE,11.5,-,0.01,Rain,Light Rain,160,2012-12-10 13:06:00
8:13 AM,53.6,51.8,94,29.63,5.0,SSE,13.8,-,0.02,Rain,Light Rain,160,2012-12-10 13:13:00
8:44 AM,53.6,51.8,94,29.63,10.0,South,11.5,23.0,0.03,Rain,Light Rain,180,2012-12-10 13:44:00
8:53 AM,54.0,51.1,90,29.65,10.0,South,12.7,-,0.03,Rain,Light Rain,180,2012-12-10 13:53:00
9:50 AM,55.4,51.8,88,29.65,10.0,South,13.8,20.7,0.00,,Overcast,190,2012-12-10 14:50:00
9:53 AM,55.0,51.1,86,29.66,10.0,South,13.8,-,0.00,,Overcast,190,2012-12-10 14:53:00
10:18 AM,55.4,51.8,88,29.65,10.0,South,13.8,-,N/A,,Overcast,190,2012-12-10 15:18:00
10:53 AM,55.0,51.1,86,29.63,10.0,South,10.4,-,N/A,,Mostly Cloudy,180,2012-12-10 15:53:00
11:00 AM,55.4,51.8,88,29.61,10.0,South,10.4,-,N/A,,Mostly Cloudy,170,2012-12-10 16:00:00
11:40 AM,55.4,51.8,88,29.59,10.0,South,9.2,-,N/A,,Overcast,180,2012-12-10 16:40:00
11:53 AM,55.0,51.1,86,29.59,10.0,South,11.5,-,N/A,,Overcast,190,2012-12-10 16:53:00
12:20 PM,55.4,51.8,88,29.57,10.0,SSW,10.4,-,N/A,,Overcast,200,2012-12-10 17:20:00
12:53 PM,55.0,51.1,86,29.57,9.0,SSW,10.4,-,0.00,Rain,Light Rain,200,2012-12-10 17:53:00
1:53 PM,55.0,51.1,86,29.55,3.0,South,8.1,-,0.04,Rain,Light Rain,190,2012-12-10 18:53:00
2:07 PM,53.6,51.8,94,29.55,1.5,NW,15.0,21.9,0.06,Rain,Rain,310,2012-12-10 19:07:00
2:14 PM,50.0,46.4,87,29.55,0.8,NW,10.4,21.9,0.14,Rain,Heavy Rain,320,2012-12-10 19:14:00
2:22 PM,50.0,46.4,87,29.55,1.5,NW,5.8,-,0.18,Rain,Rain,320,2012-12-10 19:22:00
2:32 PM,50.0,46.4,87,29.55,2.5,West,4.6,-,0.21,Rain,Rain,270,2012-12-10 19:32:00
2:53 PM,50.0,46.9,89,29.57,2.0,West,6.9,-,0.27,Rain,Rain,270,2012-12-10 19:53:00
3:11 PM,50.0,46.4,87,29.56,2.0,NNW,10.4,16.1,0.03,Rain,Light Rain,330,2012-12-10 20:11:00
3:14 PM,48.2,46.4,93,29.56,2.0,NW,9.2,16.1,0.04,Rain,Light Rain,320,2012-12-10 20:14:00
3:53 PM,48.0,45.0,89,29.59,7.0,NW,8.1,18.4,0.04,Rain,Light Rain,320,2012-12-10 20:53:00
4:53 PM,45.0,41.0,86,29.62,10.0,NNW,10.4,18.4,0.03,Rain,Light Rain,330,2012-12-10 21:53:00
5:53 PM,42.1,37.9,85,29.66,6.0,NNW,10.4,19.6,0.04,Rain,Light Rain,330,2012-12-10 22:53:00
6:48 PM,37.4,33.8,87,29.70,9.0,NNW,15.0,26.5,0.05,Rain,Light Rain,330,2012-12-10 23:48:00
6:53 PM,37.9,34.0,86,29.73,5.0,NNW,12.7,26.5,0.05,Rain,Light Rain,330,2012-12-10 23:53:00
7:53 PM,37.0,34.0,89,29.76,5.0,WNW,6.9,-,0.02,Rain,Light Rain,290,2012-12-11 00:53:00
8:53 PM,36.0,32.0,86,29.75,5.0,Calm,Calm,-,0.02,Rain,Light Rain,0,2012-12-11 01:53:00
9:16 PM,35.6,33.8,93,29.72,6.0,Calm,Calm,-,0.01,Rain,Light Rain,0,2012-12-11 02:16:00
9:33 PM,35.6,32.0,87,29.72,6.0,Calm,Calm,-,0.02,Rain,Light Rain,0,2012-12-11 02:33:00
9:40 PM,35.6,33.8,93,29.74,8.0,WSW,5.8,-,0.02,Rain,Light Rain,250,2012-12-11 02:40:00
9:51 PM,35.6,32.0,87,29.75,9.0,SW,8.1,-,0.02,,Overcast,220,2012-12-11 02:51:00
9:53 PM,36.0,32.0,86,29.78,8.0,SSW,10.4,-,0.02,,Overcast,210,2012-12-11 02:53:00
10:39 PM,35.6,32.0,87,29.79,5.0,SW,9.2,-,0.01,Snow,Light Snow,220,2012-12-11 03:39:00
10:53 PM,35.1,32.0,89,29.81,7.0,SW,9.2,-,0.01,Rain,Light Rain,220,2012-12-11 03:53:00
11:53 PM,35.6,32.0,87,29.79,7.0,WSW,8.1,-,N/A,,Overcast,240,2012-12-11 04:53:00